Location: Chuathbaluk
(61.5726°N, 159.2454°W)
Time: 14:15:31
(UTC+00:00)

DELFI C3 - Pass Details

Date: 18 January 2021
Orbit: 531 x 550 km, 97.4° (Epoch: 04 March)

Event Time Altitude Azimuth Distance (km) Brightness Sun altitude
Exits shadow 06:27:29 24° 321° (NW) 1,167 ? -29.8°
Drops below altitude 10° 06:29:18 10° 335° (NNW) 1,841 ? -30.0°
Sets 06:31:31 0° 342° (NNW) 2,741 ? -30.2°
